Wind_Speed
34 34 32 30 30 31 31 31 30 29 30 30 30 29 29 29 28 28 28 28 28 28 29 30 31 32 33 33 34 35 36 37 37 38 39 40 42 42 43 44 44 46 48 49
35 34 32 32 32 32 32 32 31 31 31 32 31 31 30 30 29 29 29 29 29 29 30 31 31 33 33 33 34 34 35 36 37 38 39 41 41 41 41 42 43 45 46 47
36 34 34 34 34 33 33 33 32 32 32 33 33 32 30 30 30 29 29 29 30 30 31 32 32 33 33 34 34 34 35 36 37 38 39 40 40 41 41 42 43 43 44 46
37 36 35 35 35 34 34 33 33 33 34 34 34 34 31 30 30 30 30 30 31 31 32 33 33 33 33 34 34 35 35 37 38 39 39 39 40 41 42 42 43 45 44 45
38 37 36 36 35 35 35 34 34 34 35 35 34 35 32 31 30 30 30 31 32 32 33 34 34 34 34 34 34 35 36 37 38 39 40 40 41 41 42 43 44 45 45 46
38 38 38 37 36 36 36 36 36 36 37 37 35 36 34 31 30 31 32 32 32 33 33 34 34 34 34 35 35 36 37 37 38 39 40 41 41 42 43 44 44 45 46 46
38 38 38 38 37 37 37 37 37 38 39 38 36 36 35 32 31 32 32 32 33 33 33 34 34 34 35 35 36 37 37 38 39 40 41 41 42 42 43 44 45 45 46 46
38 38 38 38 38 38 37 37 37 39 39 38 37 37 34 33 32 32 32 33 33 33 34 34 34 35 35 36 36 37 38 38 39 41 41 42 42 43 44 45 45 45 45 46
38 38 38 38 38 38 38 37 37 38 40 39 39 37 35 33 32 32 32 33 32 32 33 34 34 35 36 37 37 37 38 38 39 41 42 43 43 43 44 45 45 45 46 47
39 40 39 38 38 38 38 37 37 38 39 40 39 37 34 32 32 32 32 32 32 32 33 33 34 34 35 36 38 38 38 39 40 42 43 43 44 44 45 45 45 46 47 48
38 39 40 39 39 38 38 38 38 38 39 39 39 36 33 32 31 31 31 32 32 32 32 33 34 35 35 36 37 38 38 40 41 42 43 44 44 45 45 45 46 47 47 47
37 39 40 39 39 39 39 38 38 38 38 38 38 36 33 32 32 32 32 32 32 32 32 33 34 35 35 36 37 38 39 40 41 41 42 44 44 44 44 45 45 46 47 47
38 39 40 40 40 39 39 38 39 39 39 38 37 35 33 32 32 33 33 32 33 33 33 34 34 35 36 37 38 39 40 40 41 42 43 43 43 43 44 44 45 47 47 46
41 41 40 40 39 39 38 38 39 39 39 38 37 34 32 33 33 33 33 33 33 34 34 35 35 36 37 38 39 39 40 40 41 42 42 41 42 43 43 43 44 45 45 45
42 42 41 40 40 39 39 38 38 38 38 38 36 35 33 33 34 34 35 35 35 35 35 36 36 37 38 39 39 39 40 41 42 41 40 40 40 42 42 43 44 44 44 44
41 42 41 41 41 41 41 39 38 38 38 37 37 35 33 34 35 35 35 36 36 36 36 37 37 38 38 39 39 39 40 41 41 40 39 39 39 40 40 41 43 43 43 42
40 41 42 42 41 42 42 39 39 39 38 38 38 35 34 35 35 35 35 36 36 36 37 38 38 38 38 38 38 38 39 40 39 38 38 38 38 38 39 40 41 41 41 41
38 39 41 42 41 42 39 39 39 39 38 38 38 37 37 37 36 36 37 37 37 37 38 38 38 38 38 38 38 38 39 39 39 38 37 38 38 38 39 39 40 40 40 40
37 37 39 40 41 41 39 38 38 39 39 38 38 38 38 38 37 37 37 38 38 38 38 38 38 38 38 39 39 38 38 38 38 38 38 38 38 38 38 39 40 39 40 40
35 36 37 38 40 40 37 36 37 38 39 38 38 38 38 37 37 36 36 37 37 37 38 38 37 37 38 38 38 38 38 38 38 37 37 38 38 38 38 38 39 38 38 37
33 34 36 37 39 39 37 36 35 36 36 36 37 38 38 38 37 37 37 37 37 37 37 37 38 38 37 38 38 38 38 38 38 37 37 37 37 37 36 37 37 37 37 36
31 33 34 35 37 36 36 36 36 35 34 35 36 36 37 37 37 37 38 38 37 37 37 37 38 37 37 37 37 37 38 38 37 36 36 35 35 35 36 36 36 36 36 34
30 31 33 34 33 33 34 36 36 36 36 36 35 35 36 36 37 37 37 37 37 37 37 37 37 36 36 36 37 37 37 37 35 34 34 34 33 34 34 35 34 34 34 34
29 30 32 32 32 31 32 33 34 35 35 35 35 34 35 34 35 35 35 35 36 36 35 35 35 35 35 36 36 36 35 35 34 34 34 33 32 32 33 33 33 33 33 33
28 29 30 30 30 30 31 32 33 34 34 34 34 34 34 35 35 34 34 34 34 34 33 33 33 34 34 35 36 36 35 35 34 33 33 32 32 31 32 32 32 33 33 32
26 27 28 28 28 29 30 31 31 32 32 33 33 33 32 33 34 33 34 34 34 34 33 33 34 34 35 35 36 36 35 35 33 32 31 31 31 30 30 31 31 32 32 31
Wind_Direction
242 243 244 245 246 247 248 249 250 251 253 253 253 254 256 259 262 264 266 269 271 272 273 276 277 278 279 279 278 276 274 275 276 277 278 279 280 281 281 280 278 276 275 274
242 243 244 244 245 247 249 250 251 252 253 254 255 256 258 261 262 264 266 269 271 273 275 277 279 279 280 279 279 278 277 276 278 279 281 282 282 282 283 283 282 280 277 275
242 243 243 245 246 248 249 252 252 254 254 255 256 256 259 261 262 264 267 270 272 274 276 278 280 280 279 279 279 278 278 278 279 281 283 284 283 282 283 284 283 283 280 277
242 242 243 245 247 248 250 252 254 254 255 256 257 258 257 261 263 265 268 271 273 275 276 278 280 280 279 279 279 280 280 280 282 283 284 285 284 284 284 285 284 284 284 282
243 243 244 246 247 249 251 252 254 255 256 256 257 260 258 260 263 266 270 272 274 275 277 278 280 279 278 280 281 282 281 282 283 284 285 286 286 285 285 285 285 285 285 284
243 243 244 245 246 248 250 252 254 255 256 256 257 261 260 261 263 266 269 272 274 276 277 278 279 279 279 281 282 283 283 283 284 285 286 286 286 285 285 286 287 287 286 285
242 244 244 245 246 248 250 252 254 255 256 258 260 262 263 264 265 267 270 273 275 277 279 279 280 280 281 282 283 283 283 284 285 285 286 286 286 286 286 286 287 288 287 285
243 243 244 245 246 247 250 252 255 258 260 261 262 262 264 265 267 269 271 274 276 277 279 280 280 281 282 283 284 284 285 285 285 286 286 286 286 287 287 287 288 288 287 286
243 243 243 245 246 247 248 251 254 258 260 261 261 261 263 266 269 271 273 274 276 278 279 280 281 282 283 283 284 285 286 286 287 287 286 286 286 287 288 288 288 289 288 288
243 244 243 244 246 247 249 251 253 256 259 261 261 262 265 268 269 271 273 276 278 279 280 280 281 283 284 284 284 285 286 287 288 287 286 286 287 287 288 289 289 289 290 289
243 245 245 245 246 247 248 250 252 255 258 260 263 265 267 270 270 273 275 278 279 280 280 281 282 283 284 285 285 286 288 289 289 288 287 287 287 288 289 289 289 290 291 290
241 244 246 246 246 246 247 249 251 255 258 260 263 265 268 270 272 274 275 277 279 280 282 282 283 284 286 287 287 287 289 290 290 289 289 289 288 288 289 290 291 292 292 291
240 243 246 246 246 247 248 249 251 253 256 257 261 264 266 269 272 274 275 276 278 280 282 282 283 285 287 288 288 289 291 292 292 291 291 290 288 289 290 291 292 293 294 293
241 244 245 247 249 249 249 249 251 253 254 256 259 263 265 267 270 273 274 275 277 279 281 283 285 287 288 289 290 292 293 293 293 292 291 290 290 291 292 292 293 295 296 295
242 244 245 246 247 248 248 250 252 254 256 258 259 261 264 266 268 270 272 274 277 280 283 284 286 287 289 290 292 292 292 293 295 294 293 292 291 292 293 294 295 296 296 296
243 244 244 245 248 249 249 250 252 254 256 258 259 260 263 265 267 269 272 274 278 281 283 285 286 287 289 291 292 292 293 294 295 294 293 293 293 294 295 295 296 297 297 298
242 244 245 246 248 251 251 252 253 255 256 258 259 260 261 264 267 270 272 274 278 282 284 285 285 286 289 291 292 292 293 294 295 294 294 295 295 295 296 297 298 298 298 299
243 245 248 248 249 251 252 253 254 255 255 257 258 259 261 263 266 269 272 275 278 282 284 285 285 286 289 290 291 292 292 293 294 294 294 295 295 296 297 298 299 298 298 299
242 244 247 250 252 253 252 254 256 257 256 258 259 260 261 263 266 269 273 275 279 281 284 285 286 287 288 290 291 291 292 294 294 294 293 295 295 295 297 298 298 298 299 300
243 245 247 250 253 254 252 254 255 257 257 257 259 260 261 263 266 269 272 275 278 280 283 285 287 288 288 290 291 291 292 293 294 294 294 295 295 296 297 298 299 299 300 302
243 246 248 251 254 255 254 256 257 258 259 258 259 259 260 263 267 269 271 275 277 280 282 284 286 287 288 290 291 292 293 293 294 294 294 294 295 296 298 300 300 300 301 303
242 245 248 251 254 256 256 257 258 259 258 258 259 260 261 263 266 269 272 275 276 278 281 283 285 286 287 289 291 292 293 294 295 294 294 294 295 296 298 300 301 302 303 304
245 246 248 250 253 256 257 256 256 257 257 258 260 261 263 265 267 270 272 275 277 279 281 282 284 285 286 288 290 292 294 294 294 293 294 294 296 297 299 301 302 304 304 305
248 248 249 251 252 255 256 256 257 257 258 258 259 261 263 266 268 270 272 274 276 279 281 282 283 283 284 286 289 291 293 294 294 294 294 295 297 298 300 302 304 305 306 306
251 251 250 250 251 253 255 257 257 256 257 259 260 262 263 265 268 271 272 274 276 277 278 280 282 284 286 287 288 289 290 292 293 293 294 295 297 298 300 301 304 305 306 307
251 252 251 251 251 253 254 255 256 257 258 258 260 262 263 266 268 270 272 274 275 275 277 280 283 285 287 288 288 289 289 290 291 291 291 293 295 297 300 302 303 304 306 307
Height
5693 5697 5700 5703 5705 5706 5708 5709 5711 5714 5714 5715 5717 5719 5719 5720 5721 5721 5721 5721 5721 5721 5720 5719 5718 5716 5715 5714 5712 5711 5710 5710 5710 5709 5708 5706 5704 5701 5699 5696 5695 5693 5693 5692
5686 5690 5693 5694 5696 5698 5700 5702 5704 5706 5707 5708 5709 5711 5712 5712 5714 5714 5714 5714 5714 5713 5712 5711 5710 5708 5707 5705 5704 5702 5701 5701 5700 5699 5697 5695 5693 5690 5688 5686 5684 5681 5680 5679
5678 5683 5684 5686 5688 5690 5692 5695 5697 5698 5699 5700 5702 5704 5705 5706 5706 5707 5707 5707 5706 5706 5705 5703 5702 5700 5698 5697 5695 5694 5693 5692 5691 5689 5687 5685 5682 5680 5678 5676 5674 5671 5668 5667
5668 5673 5676 5678 5681 5683 5685 5688 5689 5690 5691 5692 5694 5695 5699 5698 5698 5699 5699 5699 5699 5698 5697 5695 5693 5692 5690 5688 5687 5685 5684 5682 5681 5679 5677 5674 5672 5670 5668 5665 5663 5660 5657 5655
5660 5664 5667 5670 5674 5675 5677 5679 5681 5681 5682 5684 5685 5686 5691 5691 5691 5692 5692 5691 5690 5689 5688 5687 5685 5683 5681 5680 5678 5676 5675 5673 5671 5669 5667 5664 5661 5659 5657 5654 5652 5649 5646 5644
5651 5654 5658 5661 5664 5666 5668 5671 5672 5672 5673 5675 5678 5678 5681 5684 5684 5684 5684 5683 5682 5681 5680 5678 5676 5674 5673 5671 5669 5667 5665 5664 5661 5659 5656 5654 5651 5648 5646 5644 5641 5638 5635 5632
5642 5645 5649 5652 5655 5658 5660 5663 5663 5663 5664 5667 5670 5670 5673 5676 5676 5676 5675 5674 5673 5672 5671 5669 5667 5666 5664 5662 5660 5658 5656 5654 5651 5649 5646 5643 5641 5637 5635 5632 5630 5627 5624 5621
5632 5636 5640 5643 5646 5649 5651 5654 5656 5657 5657 5660 5661 5662 5666 5667 5667 5667 5667 5666 5665 5664 5662 5660 5658 5656 5654 5653 5651 5648 5646 5643 5641 5638 5636 5633 5630 5627 5624 5621 5618 5615 5613 5610
5623 5627 5631 5634 5637 5640 5642 5644 5647 5648 5648 5649 5651 5654 5657 5658 5658 5658 5658 5657 5656 5655 5653 5651 5649 5647 5645 5643 5641 5638 5635 5633 5630 5627 5625 5622 5619 5616 5613 5610 5607 5604 5601 5598
5613 5617 5621 5624 5627 5630 5633 5636 5638 5638 5639 5640 5642 5645 5649 5650 5650 5650 5649 5648 5647 5646 5644 5642 5640 5638 5635 5633 5630 5627 5625 5622 5619 5616 5613 5611 5608 5605 5602 5598 5595 5592 5588 5585
5604 5608 5611 5614 5618 5622 5625 5627 5628 5629 5630 5632 5633 5640 5641 5641 5641 5641 5640 5639 5638 5637 5635 5633 5631 5629 5626 5623 5620 5617 5615 5612 5609 5605 5602 5599 5596 5593 5590 5586 5583 5580 5576 5573
5595 5598 5601 5605 5609 5611 5614 5617 5620 5622 5623 5624 5625 5632 5632 5632 5631 5631 5631 5630 5629 5628 5626 5624 5622 5619 5616 5613 5610 5607 5605 5602 5598 5595 5591 5588 5585 5581 5578 5575 5571 5568 5564 5560
5585 5588 5591 5595 5600 5603 5605 5608 5610 5612 5613 5615 5617 5624 5623 5623 5622 5622 5622 5621 5620 5619 5617 5615 5613 5610 5607 5604 5601 5597 5595 5591 5588 5584 5580 5576 5573 5570 5567 5563 5560 5556 5552 5548
5575 5578 5583 5587 5590 5593 5596 5599 5601 5602 5604 5606 5610 5614 5615 5614 5614 5613 5613 5612 5611 5610 5608 5606 5604 5601 5598 5594 5591 5588 5584 5581 5577 5573 5569 5565 5562 5559 5556 5552 5549 5545 5541 5537
5564 5568 5572 5576 5579 5582 5585 5588 5591 5593 5595 5598 5602 5603 5606 5605 5604 5604 5603 5602 5602 5601 5599 5596 5594 5591 5588 5585 5581 5578 5574 5570 5566 5562 5558 5555 5552 5548 5545 5542 5538 5534 5530 5526
5555 5559 5563 5566 5569 5571 5574 5578 5581 5584 5586 5588 5591 5594 5596 5594 5594 5594 5594 5593 5593 5592 5590 5587 5584 5581 5578 5575 5572 5568 5564 5560 5556 5552 5548 5545 5542 5539 5536 5532 5528 5524 5520 5516
5545 5549 5553 5556 5559 5560 5565 5571 5573 5575 5578 5579 5581 5586 5585 5585 5585 5585 5584 5584 5583 5582 5580 5578 5575 5572 5569 5565 5562 5558 5554 5551 5547 5543 5539 5536 5533 5530 5526 5523 5519 5515 5511 5507
5536 5540 5543 5546 5550 5551 5560 5562 5563 5565 5568 5570 5572 5574 5575 5576 5576 5575 5575 5574 5574 5573 5571 5568 5565 5563 5559 5556 5552 5549 5545 5542 5538 5534 5531 5528 5524 5521 5517 5514 5510 5506 5502 5498
5527 5531 5533 5536 5538 5542 5549 5552 5553 5555 5558 5560 5562 5564 5565 5565 5566 5567 5566 5565 5564 5563 5561 5558 5556 5553 5550 5547 5543 5540 5536 5533 5529 5525 5522 5519 5516 5512 5509 5505 5501 5497 5493 5489
5519 5521 5525 5527 5529 5533 5541 5542 5542 5545 5547 5550 5551 5553 5554 5555 5557 5558 5556 5555 5554 5553 5551 5549 5546 5544 5541 5538 5534 5531 5528 5524 5520 5517 5513 5510 5507 5503 5500 5496 5493 5489 5485 5481
5510 5512 5515 5518 5520 5524 5530 5532 5533 5536 5539 5540 5541 5542 5544 5545 5546 5547 5546 5545 5545 5544 5542 5539 5537 5534 5531 5528 5525 5522 5519 5515 5512 5508 5505 5501 5498 5495 5491 5488 5484 5480 5476 5473
5502 5505 5507 5509 5512 5518 5520 5521 5523 5525 5527 5528 5530 5532 5533 5535 5535 5536 5536 5536 5535 5534 5532 5530 5527 5525 5522 5519 5516 5513 5510 5507 5503 5500 5497 5493 5490 5486 5483 5480 5476 5472 5468 5465
5494 5497 5499 5502 5507 5508 5509 5511 5513 5514 5517 5518 5520 5522 5523 5524 5525 5526 5526 5526 5525 5524 5522 5520 5518 5516 5513 5510 5507 5504 5501 5498 5495 5492 5489 5486 5482 5479 5475 5472 5468 5465 5461 5457
5486 5488 5491 5493 5497 5499 5500 5501 5503 5504 5506 5508 5510 5512 5514 5515 5515 5516 5516 5516 5515 5514 5512 5510 5508 5506 5504 5502 5499 5495 5492 5489 5486 5484 5481 5478 5475 5472 5468 5464 5461 5457 5453 5450
5479 5480 5482 5484 5488 5489 5491 5492 5493 5495 5497 5498 5500 5502 5504 5505 5506 5506 5506 5506 5505 5504 5502 5501 5499 5497 5495 5492 5490 5487 5484 5481 5478 5476 5473 5470 5467 5464 5461 5458 5454 5450 5447 5442
5472 5473 5474 5477 5479 5480 5482 5483 5484 5486 5488 5490 5491 5493 5494 5495 5496 5496 5496 5496 5495 5494 5493 5492 5490 5488 5486 5483 5481 5478 5475 5473 5470 5468 5465 5463 5460 5457 5455 5452 5449 5444 5440 5436